Change the Weather History Date:

Tuesday, December 10, 2013

  Actual Average Record
Temperature  
Mean Temperature 0 °F -  
Max Temperature 9 °F 29 °F 47 °F (1911)
Min Temperature -8 °F 15 °F -8 °F (2013)
Degree Days  
Heating Degree Days 64    
Moisture  
Dew Point -3 °F    
Average Humidity 79    
Maximum Humidity 88    
Minimum Humidity 67    
Precipitation  
Precipitation 0.00 in - - ()
Sea Level Pressure  
Sea Level Pressure 29.84 in    
Wind  
Wind Speed 12 mph (WSW)    
Max Wind Speed 20 mph    
Max Gust Speed 28 mph    
Visibility 9 miles    
Events Snow    
Averages and records for this station are not official NWS values.
T = Trace of Precipitation, MM = Missing Value Source: NWS Daily Summary

Daily Weather History Graph

Daily Weather History Graph

Search for Another Location

Airport or City:

Trip Planner

Search our weather history database for the weather conditions in past years. The results will help you decide how hot, cold, wet, or windy it might be!

Date:

Astronomy

Dec. 10, 2013 Rise Set
Actual Time 8:14 AM EST 4:55 PM EST
Civil Twilight 7:39 AM EST 5:29 PM EST
Nautical Twilight 7:01 AM EST 6:08 PM EST
Astronomical Twilight 6:24 AM EST 6:44 PM EST
Moon 1:14 PM EST (12/10) 1:11 AM EST (12/10)
Length of Visible Light 9h 50m
Length of Day
8h 41m
First Quarter, 61% of the Moon is Illuminated
Dec 10
First Quarter
Dec 17
Full
Dec 25
Last Quarter
Jan 1
New
Jan 7
First Quarter

Hourly Weather History & Observations

Time (EST) Temp. Windchill Dew Point Humidity Pressure Visibility Wind Dir Wind Speed Gust Speed Precip Events Conditions
12:15 AM 0.1 °F -19.2 °F -6.2 °F 75% 29.89 in 10.0 mi WSW 15.0 mph 20.7 mph N/A   Clear
12:36 AM -0.4 °F -21.7 °F -6.9 °F 74% 29.89 in 10.0 mi WSW 18.4 mph 24.2 mph N/A   Clear
12:55 AM -0.8 °F -21.0 °F -6.7 °F 76% 29.89 in 10.0 mi WSW 16.1 mph - N/A   Clear
1:15 AM -1.3 °F -23.5 °F -7.4 °F 75% 29.89 in 10.0 mi WSW 19.6 mph 27.6 mph N/A   Clear
1:36 AM -1.8 °F -23.0 °F -7.6 °F 76% 29.89 in 10.0 mi WSW 17.3 mph 25.3 mph N/A   Clear
1:55 AM -2.0 °F -23.3 °F -7.6 °F 77% 29.88 in 10.0 mi SW 17.3 mph 24.2 mph N/A   Clear
2:15 AM -2.2 °F -22.9 °F -7.6 °F 78% 29.89 in 10.0 mi SW 16.1 mph 20.7 mph N/A   Clear
2:35 AM -2.4 °F -21.7 °F -7.8 °F 78% 29.91 in 10.0 mi SW 13.8 mph 21.9 mph N/A   Clear
2:55 AM -2.7 °F -24.8 °F -8.0 °F 78% 29.90 in 10.0 mi SW 18.4 mph 23.0 mph N/A   Clear
3:15 AM -3.3 °F -24.2 °F -8.3 °F 79% 29.91 in 10.0 mi WSW 16.1 mph 20.7 mph N/A   Clear
3:35 AM -3.8 °F -22.7 °F -8.5 °F 80% 29.91 in 10.0 mi WSW 12.7 mph - N/A   Clear
3:55 AM -4.2 °F -25.4 °F -8.7 °F 81% 29.91 in 10.0 mi WSW 16.1 mph 20.7 mph N/A   Clear
4:16 AM -4.4 °F -24.2 °F -8.7 °F 82% 29.91 in 10.0 mi SW 13.8 mph - N/A   Clear
4:35 AM -4.9 °F -22.3 °F -9.4 °F 81% 29.90 in 10.0 mi SW 10.4 mph - N/A   Clear
4:55 AM -5.3 °F -21.7 °F -9.4 °F 82% 29.90 in 10.0 mi WSW 9.2 mph - N/A   Scattered Clouds
5:16 AM -5.8 °F -21.2 °F -9.6 °F 84% 29.88 in 10.0 mi SW 8.1 mph - N/A   Clear
5:36 AM -5.4 °F -21.9 °F -9.4 °F 83% 29.87 in 10.0 mi SW 9.2 mph - N/A   Scattered Clouds
5:55 AM -6.0 °F -21.5 °F -9.6 °F 84% 29.87 in 10.0 mi SW 8.1 mph - N/A   Scattered Clouds
6:15 AM -5.8 °F -22.4 °F -9.4 °F 84% 29.86 in 10.0 mi SW 9.2 mph - N/A   Clear
6:35 AM -5.8 °F -25.2 °F -9.4 °F 84% 29.87 in 10.0 mi SSW 12.7 mph - N/A   Scattered Clouds
6:55 AM -6.2 °F -23.9 °F -9.6 °F 85% 29.85 in 10.0 mi SW 10.4 mph - N/A   Scattered Clouds
7:15 AM -6.3 °F -23.1 °F -9.8 °F 85% 29.85 in 10.0 mi SSW 9.2 mph - N/A   Clear
7:35 AM -7.2 °F -21.7 °F -10.5 °F 86% 29.84 in 10.0 mi SW 6.9 mph - N/A   Clear
7:55 AM -8.0 °F -21.0 °F -10.8 °F 87% 29.84 in 10.0 mi SW 5.8 mph - N/A   Clear
8:16 AM -8.5 °F -17.6 °F -11.6 °F 86% 29.83 in 10.0 mi SW 3.5 mph - N/A   Scattered Clouds
8:35 AM -7.8 °F -22.3 °F -10.5 °F 88% 29.83 in 10.0 mi SSW 6.9 mph - N/A   Overcast
8:55 AM -5.8 °F -19.9 °F -9.6 °F 84% 29.83 in 10.0 mi SW 6.9 mph - N/A   Overcast
9:16 AM -4.2 °F -19.3 °F -8.7 °F 81% 29.83 in 10.0 mi SW 8.1 mph - N/A   Overcast
9:35 AM -3.1 °F -17.9 °F -8.3 °F 78% 29.83 in 10.0 mi WSW 8.1 mph - N/A   Overcast
9:55 AM -1.1 °F -15.5 °F -7.6 °F 74% 29.82 in 10.0 mi West 8.1 mph - N/A   Overcast
10:16 AM 1.0 °F -12.9 °F -6.7 °F 70% 29.82 in 10.0 mi WSW 8.1 mph - N/A   Overcast
10:35 AM 2.5 °F -11.1 °F -6.3 °F 67% 29.81 in 10.0 mi WSW 8.1 mph - N/A   Overcast
10:55 AM 3.0 °F -9.3 °F -2.6 °F 78% 29.80 in 1.8 mi WSW 6.9 mph - N/A Snow Light Snow
11:15 AM 3.7 °F -3.6 °F -0.9 °F 81% 29.79 in 2.0 mi West 3.5 mph - N/A Snow Light Snow
11:35 AM 4.8 °F -5.8 °F -0.0 °F 80% 29.77 in 2.5 mi West 5.8 mph - N/A   Haze
11:55 AM 4.8 °F -4.3 °F 0.5 °F 82% 29.75 in 2.0 mi NW 4.6 mph - N/A   Haze
12:15 PM 5.9 °F -5.8 °F 1.4 °F 82% 29.74 in 10.0 mi West 6.9 mph - N/A   Overcast
12:35 PM 6.8 °F -4.8 °F 1.9 °F 80% 29.73 in 10.0 mi WNW 6.9 mph - N/A   Overcast
12:56 PM 7.5 °F -2.6 °F 2.3 °F 79% 29.72 in 5.0 mi West 5.8 mph - N/A   Haze
1:15 PM 7.5 °F -2.6 °F 2.7 °F 81% 29.73 in 2.5 mi WSW 5.8 mph - N/A   Haze
1:35 PM 7.7 °F 1.0 °F 3.2 °F 82% 29.73 in 1.8 mi WSW 3.5 mph - N/A Snow Light Snow
1:56 PM 8.8 °F - 4.5 °F 83% 29.72 in 1.2 mi Calm Calm - N/A Snow Light Snow
2:15 PM 8.4 °F - 4.6 °F 85% 29.73 in 1.8 mi Calm Calm - N/A Snow Light Snow
2:35 PM 9.3 °F 1.0 °F 5.0 °F 83% 29.73 in 2.5 mi SW 4.6 mph - N/A Snow Light Snow
2:56 PM 9.5 °F -0.3 °F 5.0 °F 82% 29.74 in 7.0 mi WSW 5.8 mph - N/A Snow Light Snow
3:15 PM 9.5 °F -3.5 °F 4.6 °F 81% 29.75 in 5.0 mi West 9.2 mph - N/A   Haze
3:35 PM 9.1 °F -1.9 °F 4.3 °F 81% 29.75 in 3.0 mi SW 6.9 mph - N/A   Haze
3:55 PM 8.6 °F -3.7 °F 3.9 °F 81% 29.76 in 5.0 mi SW 8.1 mph - N/A   Haze
4:15 PM 8.6 °F -1.3 °F 3.4 °F 79% 29.77 in 10.0 mi SW 5.8 mph - N/A   Scattered Clouds
4:36 PM 7.3 °F -6.2 °F 2.5 °F 81% 29.79 in 10.0 mi SSW 9.2 mph - N/A   Clear
4:54 PM 7.2 °F -6.4 °F 2.5 °F 81% 29.79 in 10.0 mi SW 9.2 mph - N/A   Clear
5:16 PM 6.3 °F -8.4 °F 2.1 °F 83% 29.79 in 10.0 mi SW 10.4 mph - N/A   Clear
5:35 PM 6.4 °F -8.2 °F 2.3 °F 83% 29.80 in 10.0 mi SW 10.4 mph - N/A   Clear
5:55 PM 6.3 °F -9.2 °F 1.6 °F 81% 29.81 in 10.0 mi SW 11.5 mph - N/A   Clear
6:16 PM 9.1 °F -7.7 °F 2.3 °F 74% 29.81 in 10.0 mi WSW 15.0 mph - N/A   Mostly Cloudy
6:35 PM 9.1 °F -8.2 °F 2.1 °F 73% 29.82 in 10.0 mi SW 16.1 mph 21.9 mph N/A   Overcast
6:55 PM 9.3 °F -7.4 °F 1.9 °F 72% 29.83 in 10.0 mi WSW 15.0 mph - N/A   Overcast
7:15 PM 9.1 °F -8.8 °F 1.8 °F 72% 29.84 in 10.0 mi SW 17.3 mph 23.0 mph N/A   Mostly Cloudy
7:35 PM 8.6 °F -7.7 °F 1.4 °F 73% 29.85 in 10.0 mi WSW 13.8 mph 24.2 mph N/A   Mostly Cloudy
7:55 PM 8.6 °F -8.9 °F 1.8 °F 74% 29.86 in 10.0 mi WSW 16.1 mph 24.2 mph N/A   Overcast
8:15 PM 8.6 °F -9.5 °F 1.6 °F 73% 29.86 in 10.0 mi WSW 17.3 mph 25.3 mph N/A   Mostly Cloudy
8:35 PM 8.2 °F -10.0 °F 1.2 °F 73% 29.87 in 10.0 mi WSW 17.3 mph 27.6 mph N/A   Scattered Clouds
8:55 PM 8.1 °F -9.6 °F 0.9 °F 72% 29.87 in 10.0 mi WSW 16.1 mph 25.3 mph N/A   Clear
9:15 PM 7.5 °F -10.9 °F 0.5 °F 73% 29.87 in 10.0 mi WSW 17.3 mph 24.2 mph N/A   Clear
9:35 PM 6.8 °F -12.4 °F -0.0 °F 74% 29.88 in 10.0 mi WSW 18.4 mph - N/A   Clear
9:56 PM 6.6 °F -12.1 °F -0.4 °F 73% 29.89 in 10.0 mi WSW 17.3 mph 25.3 mph N/A   Clear
10:15 PM 5.9 °F -11.8 °F -0.4 °F 75% 29.89 in 10.0 mi WSW 15.0 mph 23.0 mph N/A   Clear
10:35 PM 5.9 °F -11.8 °F -0.8 °F 74% 29.91 in 10.0 mi WSW 15.0 mph 23.0 mph N/A   Clear
10:55 PM 5.5 °F -13.5 °F -1.1 °F 74% 29.91 in 10.0 mi WSW 17.3 mph 23.0 mph N/A   Clear
11:15 PM 5.2 °F -13.3 °F -1.3 °F 75% 29.93 in 10.0 mi WSW 16.1 mph 23.0 mph N/A   Clear
11:36 PM 5.0 °F -14.7 °F -1.5 °F 75% 29.94 in 10.0 mi WSW 18.4 mph 21.9 mph N/A   Clear
11:55 PM 4.8 °F -14.4 °F -1.7 °F 75% 29.94 in 10.0 mi WSW 17.3 mph 24.2 mph N/A   Clear